C/2017 T3 ( ATLAS )

Japanese version
Home page
Updated on November 23, 2017

---------------------------------------------------------------------

* Profile

Discovery Date October 14, 2017
Magnitude 18.3 mag
Discoverer Asteroid Terrestrial-impact Last Alert System (ATLAS) search program

* Orbital Elements

Epoch 2018 July 21.0 TT = JDT 2458320.5
T 2018 July 19.14944 TT                                 MPCW
q   0.8253600            (2000.0)            P               Q
z  +0.0008516      Peri.  246.88976     +0.22844982     -0.60002185
 +/-0.0001206      Node   230.09341     +0.65981570     -0.48362410
e   0.9992971      Incl.   88.10303     -0.71585887     -0.63724525
From 144 observations 2017 Sept. 11-Nov. 1, mean residual 0".4.

* Finding Charts

* Magnitudes Graph

        m1 = 9.0 + 5 log d + 10.0 log r

---------------------------------------------------------------------

The orbital elements are published on M.P.E.C. 2017-V13.
The charts are made with StellaNavigator Ver.10 (AstroArts).
The magnitudes graphs are made with Comet for Windows.

---------------------------------------------------------------------

Copyright(C) Seiichi Yoshida (comet@aerith.net). All rights reserved.